Time,TemperatureF,DewpointF,PressureIn,WindDirection,WindDirectionDegrees,WindSpeedMPH,WindSpeedGustMPH,Humidity,HourlyPrecipIn,Conditions,Clouds,dailyrainin,SoftwareType,DateUTC
2013-03-07 00:01:00,36.0,23.0,30.13,SE,130,12.0,-999.0,59,-99.99,,,-99.99,,2013-03-07 06:01:00,
2013-03-07 00:11:00,36.0,23.0,30.13,SE,130,13.0,17.0,59,-99.99,,,-99.99,,2013-03-07 06:11:00,
2013-03-07 00:21:00,36.0,23.0,30.12,SE,140,13.0,20.0,59,-99.99,,,-99.99,,2013-03-07 06:21:00,
2013-03-07 00:31:00,36.0,23.0,30.12,SE,130,13.0,-999.0,59,-99.99,,,-99.99,,2013-03-07 06:31:00,
2013-03-07 00:41:00,36.0,23.0,30.12,SE,140,12.0,17.0,59,-99.99,,,-99.99,,2013-03-07 06:41:00,
2013-03-07 00:51:00,36.0,23.0,30.12,SE,140,13.0,-999.0,59,-99.99,,,-99.99,,2013-03-07 06:51:00,
2013-03-07 01:01:00,36.0,23.0,30.12,SE,140,13.0,-999.0,59,-99.99,,,-99.99,,2013-03-07 07:01:00,
2013-03-07 01:11:00,36.0,23.0,30.12,SE,140,10.0,16.0,59,-99.99,,,-99.99,,2013-03-07 07:11:00,
2013-03-07 01:21:00,36.0,23.0,30.12,SE,140,12.0,17.0,59,-99.99,,,-99.99,,2013-03-07 07:21:00,
2013-03-07 01:32:00,34.0,23.0,30.12,SE,140,13.0,-999.0,64,-99.99,,,-99.99,,2013-03-07 07:32:00,
2013-03-07 01:42:00,34.0,23.0,30.12,SE,140,12.0,-999.0,64,-99.99,,,-99.99,,2013-03-07 07:42:00,
2013-03-07 01:52:00,34.0,23.0,30.12,SE,140,12.0,18.0,64,-99.99,,,-99.99,,2013-03-07 07:52:00,
2013-03-07 02:02:00,34.0,23.0,30.12,SE,140,12.0,18.0,64,-99.99,,,-99.99,,2013-03-07 08:02:00,
2013-03-07 02:12:00,34.0,23.0,30.13,SE,140,14.0,-999.0,64,-99.99,,,-99.99,,2013-03-07 08:12:00,
2013-03-07 02:22:00,34.0,23.0,30.12,SE,140,14.0,20.0,64,-99.99,,,-99.99,,2013-03-07 08:22:00,
2013-03-07 02:32:00,34.0,23.0,30.12,SE,140,13.0,-999.0,64,-99.99,,,-99.99,,2013-03-07 08:32:00,
2013-03-07 02:43:00,34.0,23.0,30.11,SE,140,13.0,-999.0,64,-99.99,,,-99.99,,2013-03-07 08:43:00,
2013-03-07 02:52:00,34.0,25.0,30.11,SE,140,15.0,21.0,69,-99.99,,,-99.99,,2013-03-07 08:52:00,
2013-03-07 03:03:00,34.0,25.0,30.11,SE,140,15.0,21.0,69,-99.99,,,-99.99,,2013-03-07 09:03:00,
2013-03-07 03:12:00,34.0,25.0,30.10,SE,140,14.0,-999.0,69,-99.99,,,-99.99,,2013-03-07 09:12:00,
2013-03-07 03:22:00,34.0,25.0,30.09,SE,140,12.0,18.0,69,-99.99,,,-99.99,,2013-03-07 09:22:00,
2013-03-07 03:32:00,34.0,25.0,30.09,SE,140,13.0,-999.0,69,-99.99,,,-99.99,,2013-03-07 09:32:00,
2013-03-07 03:42:00,34.0,25.0,30.08,SE,140,13.0,-999.0,69,-99.99,,,-99.99,,2013-03-07 09:42:00,
2013-03-07 03:52:00,34.0,25.0,30.08,SE,140,12.0,-999.0,69,-99.99,,,-99.99,,2013-03-07 09:52:00,
2013-03-07 04:03:00,34.0,25.0,30.08,SE,140,12.0,-999.0,69,-99.99,,,-99.99,,2013-03-07 10:03:00,
2013-03-07 04:12:00,34.0,25.0,30.08,SE,140,13.0,18.0,69,-99.99,,,-99.99,,2013-03-07 10:12:00,
2013-03-07 04:22:00,34.0,25.0,30.07,SE,140,14.0,-999.0,69,-99.99,,,-99.99,,2013-03-07 10:22:00,
2013-03-07 04:33:00,34.0,25.0,30.07,SE,140,14.0,18.0,69,-99.99,,,-99.99,,2013-03-07 10:33:00,
2013-03-07 04:42:00,32.0,25.0,30.07,SE,130,15.0,20.0,74,-99.99,,,-99.99,,2013-03-07 10:42:00,
2013-03-07 04:52:00,34.0,25.0,30.07,SE,130,13.0,20.0,69,-99.99,,,-99.99,,2013-03-07 10:52:00,
2013-03-07 05:02:00,34.0,25.0,30.07,SE,130,13.0,20.0,69,-99.99,,,-99.99,,2013-03-07 11:02:00,
2013-03-07 05:12:00,32.0,25.0,30.07,SE,130,13.0,17.0,74,-99.99,,,-99.99,,2013-03-07 11:12:00,
2013-03-07 05:22:00,32.0,25.0,30.06,SE,140,15.0,18.0,74,-99.99,,,-99.99,,2013-03-07 11:22:00,
2013-03-07 05:33:00,34.0,25.0,30.05,SE,140,14.0,20.0,69,-99.99,,,-99.99,,2013-03-07 11:33:00,
2013-03-07 05:42:00,34.0,25.0,30.05,SE,140,15.0,20.0,69,-99.99,,,-99.99,,2013-03-07 11:42:00,
2013-03-07 05:52:00,34.0,25.0,30.05,SE,140,16.0,-999.0,69,-99.99,,,-99.99,,2013-03-07 11:52:00,
2013-03-07 06:02:00,34.0,25.0,30.05,SE,140,16.0,-999.0,69,-99.99,,,-99.99,,2013-03-07 12:02:00,
2013-03-07 06:12:00,34.0,25.0,30.06,SE,140,14.0,18.0,69,-99.99,,,-99.99,,2013-03-07 12:12:00,
2013-03-07 06:22:00,34.0,25.0,30.06,SE,140,14.0,18.0,69,-99.99,,,-99.99,,2013-03-07 12:22:00,
2013-03-07 06:33:00,34.0,25.0,30.06,SE,140,13.0,21.0,69,-99.99,,,-99.99,,2013-03-07 12:33:00,
2013-03-07 06:42:00,34.0,25.0,30.06,SE,140,15.0,-999.0,69,-99.99,,,-99.99,,2013-03-07 12:42:00,
2013-03-07 06:52:00,34.0,25.0,30.06,SE,140,14.0,20.0,69,-99.99,,,-99.99,,2013-03-07 12:52:00,
2013-03-07 07:02:00,34.0,25.0,30.06,SE,140,14.0,20.0,69,-99.99,,,-99.99,,2013-03-07 13:02:00,
2013-03-07 07:12:00,34.0,23.0,30.05,SE,140,15.0,21.0,64,-99.99,,,-99.99,,2013-03-07 13:12:00,
2013-03-07 07:22:00,34.0,23.0,30.05,SE,140,16.0,22.0,64,-99.99,,,-99.99,,2013-03-07 13:22:00,
2013-03-07 07:32:00,34.0,23.0,30.05,SE,140,18.0,-999.0,64,-99.99,,,-99.99,,2013-03-07 13:32:00,
2013-03-07 07:42:00,34.0,23.0,30.05,SSE,150,16.0,-999.0,64,-99.99,,,-99.99,,2013-03-07 13:42:00,
2013-03-07 07:52:00,34.0,25.0,30.06,SE,140,16.0,23.0,69,-99.99,,,-99.99,,2013-03-07 13:52:00,
2013-03-07 08:02:00,34.0,25.0,30.06,SE,140,16.0,23.0,69,-99.99,,,-99.99,,2013-03-07 14:02:00,
2013-03-07 08:12:00,36.0,25.0,30.06,SSE,150,17.0,22.0,64,-99.99,,,-99.99,,2013-03-07 14:12:00,
2013-03-07 08:22:00,36.0,25.0,30.06,SSE,150,17.0,-999.0,64,-99.99,,,-99.99,,2013-03-07 14:22:00,
2013-03-07 08:32:00,37.0,25.0,30.07,SSE,150,17.0,22.0,60,-99.99,,,-99.99,,2013-03-07 14:32:00,
2013-03-07 08:42:00,37.0,25.0,30.07,SSE,150,14.0,21.0,60,-99.99,,,-99.99,,2013-03-07 14:42:00,
2013-03-07 08:52:00,37.0,25.0,30.07,SSE,150,15.0,-999.0,60,-99.99,,,-99.99,,2013-03-07 14:52:00,
2013-03-07 09:02:00,37.0,25.0,30.07,SSE,150,15.0,-999.0,60,-99.99,,,-99.99,,2013-03-07 15:02:00,
2013-03-07 09:12:00,39.0,25.0,30.07,SE,140,15.0,24.0,55,-99.99,,,-99.99,,2013-03-07 15:12:00,
2013-03-07 09:22:00,41.0,25.0,30.07,SSE,150,17.0,21.0,52,-99.99,,,-99.99,,2013-03-07 15:22:00,
2013-03-07 09:32:00,43.0,25.0,30.07,SSE,160,15.0,-999.0,48,-99.99,,,-99.99,,2013-03-07 15:32:00,
2013-03-07 09:42:00,43.0,25.0,30.07,SSE,160,20.0,24.0,48,-99.99,,,-99.99,,2013-03-07 15:42:00,
2013-03-07 09:52:00,43.0,25.0,30.07,SSE,150,18.0,24.0,48,-99.99,,,-99.99,,2013-03-07 15:52:00,
2013-03-07 10:02:00,43.0,25.0,30.07,SSE,150,18.0,24.0,48,-99.99,,,-99.99,,2013-03-07 16:02:00,
2013-03-07 10:12:00,45.0,25.0,30.06,SSE,150,17.0,24.0,45,-99.99,,,-99.99,,2013-03-07 16:12:00,
2013-03-07 10:23:00,46.0,25.0,30.06,SSE,160,16.0,23.0,42,-99.99,,,-99.99,,2013-03-07 16:23:00,
2013-03-07 10:32:00,46.0,27.0,30.06,SSE,150,16.0,24.0,45,-99.99,,,-99.99,,2013-03-07 16:32:00,
2013-03-07 10:42:00,46.0,27.0,30.06,SSE,160,17.0,25.0,45,-99.99,,,-99.99,,2013-03-07 16:42:00,
2013-03-07 10:52:00,48.0,27.0,30.05,SSE,160,18.0,23.0,42,-99.99,,,-99.99,,2013-03-07 16:52:00,
2013-03-07 11:02:00,48.0,27.0,30.05,SSE,160,18.0,23.0,42,-99.99,,,-99.99,,2013-03-07 17:02:00,
2013-03-07 11:12:00,48.0,27.0,30.05,SSE,160,20.0,25.0,42,-99.99,,,-99.99,,2013-03-07 17:12:00,
2013-03-07 11:22:00,52.0,27.0,30.04,SSE,160,17.0,-999.0,37,-99.99,,,-99.99,,2013-03-07 17:22:00,
2013-03-07 11:32:00,52.0,27.0,30.05,SSE,160,18.0,24.0,37,-99.99,,,-99.99,,2013-03-07 17:32:00,
2013-03-07 11:42:00,52.0,27.0,30.05,SSE,160,21.0,27.0,37,-99.99,,,-99.99,,2013-03-07 17:42:00,
2013-03-07 11:53:00,54.0,27.0,30.05,SSE,150,17.0,-999.0,34,-99.99,,,-99.99,,2013-03-07 17:53:00,
2013-03-07 12:03:00,54.0,27.0,30.05,SSE,150,17.0,-999.0,34,-99.99,,,-99.99,,2013-03-07 18:03:00,
2013-03-07 12:12:00,55.0,28.0,30.05,SSE,150,20.0,-999.0,35,-99.99,,,-99.99,,2013-03-07 18:12:00,
2013-03-07 12:21:00,55.0,28.0,30.04,SSE,160,14.0,20.0,35,-99.99,,,-99.99,,2013-03-07 18:21:00,
2013-03-07 12:32:00,55.0,28.0,30.04,SSE,160,18.0,27.0,35,-99.99,,,-99.99,,2013-03-07 18:32:00,
2013-03-07 12:42:00,57.0,28.0,30.03,SSE,160,18.0,27.0,33,-99.99,,,-99.99,,2013-03-07 18:42:00,
2013-03-07 12:52:00,57.0,28.0,30.03,South,170,20.0,27.0,33,-99.99,,,-99.99,,2013-03-07 18:52:00,
2013-03-07 13:03:00,57.0,28.0,30.03,South,170,20.0,27.0,33,-99.99,,,-99.99,,2013-03-07 19:03:00,
2013-03-07 13:12:00,59.0,28.0,30.02,SSE,150,17.0,24.0,30,-99.99,,,-99.99,,2013-03-07 19:12:00,
2013-03-07 13:23:00,61.0,28.0,30.01,SSE,160,16.0,-999.0,29,-99.99,,,-99.99,,2013-03-07 19:23:00,
2013-03-07 13:34:00,61.0,28.0,30.01,South,170,22.0,27.0,29,-99.99,,,-99.99,,2013-03-07 19:34:00,
2013-03-07 13:43:00,61.0,28.0,30.01,SSE,160,21.0,27.0,29,-99.99,,,-99.99,,2013-03-07 19:43:00,
2013-03-07 13:52:00,61.0,28.0,30.00,South,180,21.0,27.0,29,-99.99,,,-99.99,,2013-03-07 19:52:00,
2013-03-07 14:02:00,61.0,28.0,30.00,South,180,21.0,27.0,29,-99.99,,,-99.99,,2013-03-07 20:02:00,
2013-03-07 14:13:00,61.0,30.0,29.99,South,170,17.0,24.0,31,-99.99,,,-99.99,,2013-03-07 20:13:00,
2013-03-07 14:22:00,61.0,28.0,29.99,South,170,17.0,27.0,29,-99.99,,,-99.99,,2013-03-07 20:22:00,
2013-03-07 14:32:00,63.0,30.0,29.99,SSE,160,20.0,25.0,29,-99.99,,,-99.99,,2013-03-07 20:32:00,
2013-03-07 14:42:00,63.0,30.0,29.99,SSE,160,20.0,25.0,29,-99.99,,,-99.99,,2013-03-07 20:42:00,
2013-03-07 14:53:00,63.0,30.0,29.98,SSE,160,15.0,-999.0,29,-99.99,,,-99.99,,2013-03-07 20:53:00,
2013-03-07 15:02:00,63.0,30.0,29.98,SSE,160,15.0,-999.0,29,-99.99,,,-99.99,,2013-03-07 21:02:00,
2013-03-07 15:12:00,63.0,30.0,29.98,SSE,150,22.0,27.0,29,-99.99,,,-99.99,,2013-03-07 21:12:00,
2013-03-07 15:22:00,63.0,30.0,29.98,SE,140,18.0,25.0,29,-99.99,,,-99.99,,2013-03-07 21:22:00,
2013-03-07 15:32:00,63.0,30.0,29.98,SSE,160,18.0,27.0,29,-99.99,,,-99.99,,2013-03-07 21:32:00,
2013-03-07 15:42:00,63.0,30.0,29.98,SSE,160,20.0,24.0,29,-99.99,,,-99.99,,2013-03-07 21:42:00,
2013-03-07 15:52:00,63.0,30.0,29.98,SSE,150,15.0,23.0,29,-99.99,,,-99.99,,2013-03-07 21:52:00,
2013-03-07 16:02:00,63.0,30.0,29.98,SSE,150,15.0,23.0,29,-99.99,,,-99.99,,2013-03-07 22:02:00,
2013-03-07 16:11:00,64.0,30.0,29.97,SSE,150,17.0,25.0,27,-99.99,,,-99.99,,2013-03-07 22:11:00,
2013-03-07 16:22:00,64.0,30.0,29.97,SSE,150,16.0,24.0,27,-99.99,,,-99.99,,2013-03-07 22:22:00,
2013-03-07 16:32:00,64.0,32.0,29.97,SSE,160,15.0,24.0,29,-99.99,,,-99.99,,2013-03-07 22:32:00,
2013-03-07 16:42:00,64.0,32.0,29.97,SSE,160,16.0,21.0,29,-99.99,,,-99.99,,2013-03-07 22:42:00,
2013-03-07 16:53:00,64.0,32.0,29.97,SSE,160,18.0,22.0,29,-99.99,,,-99.99,,2013-03-07 22:53:00,
2013-03-07 17:02:00,64.0,32.0,29.97,SSE,160,18.0,22.0,29,-99.99,,,-99.99,,2013-03-07 23:02:00,
2013-03-07 17:12:00,64.0,30.0,29.97,SSE,150,16.0,-999.0,27,-99.99,,,-99.99,,2013-03-07 23:12:00,
2013-03-07 17:22:00,64.0,32.0,29.97,SSE,150,14.0,23.0,29,-99.99,,,-99.99,,2013-03-07 23:22:00,
2013-03-07 17:33:00,64.0,32.0,29.97,SSE,160,14.0,23.0,29,-99.99,,,-99.99,,2013-03-07 23:33:00,
2013-03-07 17:42:00,64.0,32.0,29.97,SSE,160,13.0,-999.0,29,-99.99,,,-99.99,,2013-03-07 23:42:00,
2013-03-07 17:52:00,63.0,32.0,29.97,SSE,150,15.0,20.0,31,-99.99,,,-99.99,,2013-03-07 23:52:00,
2013-03-07 18:03:00,63.0,32.0,29.97,SSE,150,15.0,20.0,31,-99.99,,,-99.99,,2013-03-08 00:03:00,
2013-03-07 18:12:00,63.0,32.0,29.97,SSE,150,10.0,-999.0,31,-99.99,,,-99.99,,2013-03-08 00:12:00,
2013-03-07 18:22:00,61.0,34.0,29.97,SSE,150,10.0,-999.0,36,-99.99,,,-99.99,,2013-03-08 00:22:00,
2013-03-07 18:33:00,61.0,34.0,29.98,SSE,150,13.0,-999.0,36,-99.99,,,-99.99,,2013-03-08 00:33:00,
2013-03-07 18:43:00,59.0,34.0,29.98,SSE,150,10.0,-999.0,38,-99.99,,,-99.99,,2013-03-08 00:43:00,
2013-03-07 18:52:00,59.0,34.0,29.98,SE,140,9.0,-999.0,38,-99.99,,,-99.99,,2013-03-08 00:52:00,
2013-03-07 19:01:00,59.0,34.0,29.98,SE,140,9.0,-999.0,38,-99.99,,,-99.99,,2013-03-08 01:01:00,
2013-03-07 19:11:00,57.0,34.0,29.98,SSE,150,10.0,-999.0,41,-99.99,,,-99.99,,2013-03-08 01:11:00,
2013-03-07 19:21:00,57.0,34.0,29.98,SE,140,10.0,-999.0,41,-99.99,,,-99.99,,2013-03-08 01:21:00,
2013-03-07 19:32:00,55.0,34.0,29.98,SE,140,10.0,-999.0,43,-99.99,,,-99.99,,2013-03-08 01:32:00,
2013-03-07 19:42:00,55.0,34.0,29.98,SE,140,8.0,-999.0,43,-99.99,,,-99.99,,2013-03-08 01:42:00,
2013-03-07 19:51:00,54.0,34.0,29.99,SE,140,8.0,-999.0,46,-99.99,,,-99.99,,2013-03-08 01:51:00,
2013-03-07 20:01:00,54.0,34.0,29.99,SE,140,8.0,-999.0,46,-99.99,,,-99.99,,2013-03-08 02:01:00,
2013-03-07 20:11:00,54.0,34.0,29.99,SE,140,12.0,-999.0,46,-99.99,,,-99.99,,2013-03-08 02:11:00,
2013-03-07 20:21:00,54.0,34.0,29.99,SE,140,8.0,-999.0,46,-99.99,,,-99.99,,2013-03-08 02:21:00,
2013-03-07 20:31:00,54.0,34.0,30.00,SE,140,8.0,-999.0,46,-99.99,,,-99.99,,2013-03-08 02:31:00,
2013-03-07 20:42:00,54.0,34.0,30.00,SE,140,9.0,-999.0,46,-99.99,,,-99.99,,2013-03-08 02:42:00,
2013-03-07 20:52:00,54.0,32.0,30.00,SE,130,8.0,-999.0,43,-99.99,,,-99.99,,2013-03-08 02:52:00,
2013-03-07 21:02:00,54.0,32.0,30.00,SE,130,8.0,-999.0,43,-99.99,,,-99.99,,2013-03-08 03:02:00,
2013-03-07 21:11:00,54.0,32.0,30.01,SSE,150,14.0,17.0,43,-99.99,,,-99.99,,2013-03-08 03:11:00,
2013-03-07 21:22:00,54.0,34.0,30.02,SE,140,10.0,-999.0,46,-99.99,,,-99.99,,2013-03-08 03:22:00,
2013-03-07 21:32:00,52.0,32.0,30.02,SE,140,9.0,-999.0,46,-99.99,,,-99.99,,2013-03-08 03:32:00,
2013-03-07 21:42:00,52.0,32.0,30.02,SE,140,8.0,-999.0,46,-99.99,,,-99.99,,2013-03-08 03:42:00,
2013-03-07 21:52:00,52.0,32.0,30.03,SE,130,8.0,-999.0,46,-99.99,,,-99.99,,2013-03-08 03:52:00,
2013-03-07 22:01:00,52.0,32.0,30.03,SE,130,8.0,-999.0,46,-99.99,,,-99.99,,2013-03-08 04:01:00,
2013-03-07 22:11:00,50.0,32.0,30.03,SE,130,8.0,-999.0,49,-99.99,,,-99.99,,2013-03-08 04:11:00,
2013-03-07 22:21:00,48.0,32.0,30.03,SE,130,8.0,-999.0,53,-99.99,,,-99.99,,2013-03-08 04:21:00,
2013-03-07 22:32:00,48.0,32.0,30.03,SE,130,7.0,-999.0,53,-99.99,,,-99.99,,2013-03-08 04:32:00,
2013-03-07 22:42:00,48.0,32.0,30.03,ESE,120,8.0,-999.0,53,-99.99,,,-99.99,,2013-03-08 04:42:00,
2013-03-07 22:52:00,46.0,32.0,30.03,SE,130,7.0,-999.0,57,-99.99,,,-99.99,,2013-03-08 04:52:00,
2013-03-07 23:02:00,46.0,32.0,30.03,SE,130,7.0,-999.0,57,-99.99,,,-99.99,,2013-03-08 05:02:00,
2013-03-07 23:12:00,46.0,32.0,30.03,ESE,120,8.0,-999.0,57,-99.99,,,-99.99,,2013-03-08 05:12:00,
2013-03-07 23:22:00,46.0,32.0,30.03,ESE,120,8.0,-999.0,57,-99.99,,,-99.99,,2013-03-08 05:22:00,
2013-03-07 23:32:00,46.0,32.0,30.03,ESE,120,7.0,-999.0,57,-99.99,,,-99.99,,2013-03-08 05:32:00,
2013-03-07 23:42:00,45.0,32.0,30.03,ESE,120,7.0,-999.0,61,-99.99,,,-99.99,,2013-03-08 05:42:00,
2013-03-07 23:52:00,45.0,32.0,30.02,ESE,120,8.0,-999.0,61,-99.99,,,-99.99,,2013-03-08 05:52:00,